Vorticity
nan nan nan nan nan nan nan nan nan nan nan nan nan nan nan nan nan nan nan nan nan nan nan nan nan nan nan nan nan nan nan nan nan nan nan nan nan nan nan nan nan nan nan
nan 7 7 7 7 7 7 7 8 7 8 8 8 8 8 9 9 9 8 4 3 6 5 5 4 7 9 9 7 4 5 6 6 7 9 13 10 6 6 5 6 7 nan
nan 7 7 7 7 7 7 8 8 8 8 8 7 8 8 8 8 7 7 7 6 -1 1 5 4 4 6 6 7 8 7 6 7 6 7 10 8 6 6 7 7 7 nan
nan 7 7 7 7 7 8 7 7 7 7 8 7 7 8 7 7 6 6 6 5 6 4 2 5 4 4 4 7 10 8 7 7 6 6 8 9 8 7 5 6 8 nan
nan 6 7 7 7 7 7 8 7 8 7 7 9 7 7 8 7 7 6 7 7 7 7 6 6 5 5 5 6 8 8 6 7 7 5 5 8 10 9 7 5 6 nan
nan 7 7 7 8 7 7 7 7 8 7 8 9 10 9 7 6 6 8 9 7 7 6 5 8 11 6 3 6 7 7 6 6 7 7 7 6 6 7 7 6 6 nan
nan 8 8 8 8 7 7 8 8 8 7 9 11 11 12 9 7 6 9 9 6 5 6 8 8 7 5 7 7 6 5 7 7 8 7 8 7 6 6 6 8 7 nan
nan 9 9 8 9 8 7 8 9 10 8 7 11 9 10 12 6 10 9 8 6 6 5 5 7 7 8 10 11 8 6 5 7 8 8 7 7 8 7 6 7 8 nan
nan 8 8 8 9 9 8 8 7 8 9 7 9 11 8 4 10 12 8 9 7 8 6 6 8 9 10 10 13 11 5 3 4 5 8 9 9 8 6 7 7 8 nan
nan 8 8 9 9 9 8 9 8 8 8 7 10 9 6 7 7 7 9 6 6 8 8 9 8 10 12 11 8 10 9 5 3 5 7 10 8 6 6 7 7 8 nan
nan 7 8 9 9 9 8 8 8 9 9 8 7 7 10 10 7 5 4 7 6 8 9 8 9 11 10 11 11 11 7 3 3 4 7 8 9 8 7 7 8 7 nan
nan 6 8 8 9 8 8 9 9 8 9 9 8 9 8 7 9 8 7 3 9 9 9 10 10 9 8 9 9 10 9 5 3 3 7 8 8 8 7 7 7 7 nan
nan 7 8 9 9 8 8 9 9 10 9 9 8 9 10 8 8 8 9 9 8 7 10 9 9 9 9 9 14 12 6 5 3 4 5 7 9 9 7 6 7 7 nan
nan 7 8 8 8 9 9 9 9 9 9 9 9 9 9 10 10 9 8 8 9 9 8 11 11 10 9 10 13 9 8 8 4 4 5 8 9 8 8 7 7 7 nan
nan 8 9 8 8 9 9 10 9 8 9 9 10 9 9 9 9 10 10 9 8 7 10 9 8 10 7 8 9 7 6 10 9 3 7 9 10 10 9 7 7 6 nan
nan 8 8 9 9 9 9 9 9 8 8 9 8 8 8 8 9 10 10 10 9 7 6 6 5 6 8 9 7 8 9 11 11 10 10 9 9 9 9 9 7 7 nan
nan 9 8 8 8 8 9 9 8 8 8 8 9 9 8 10 9 9 10 9 9 8 8 6 6 8 9 9 9 11 12 10 13 15 11 8 9 10 9 9 8 8 nan
nan 8 8 8 8 9 8 9 9 9 9 9 9 9 10 9 8 9 9 9 9 9 9 8 10 11 10 10 9 10 12 11 11 12 11 9 10 10 11 11 10 9 nan
nan 8 8 8 8 9 9 9 10 9 9 10 9 9 9 8 10 9 9 10 9 10 9 11 10 10 10 11 13 13 11 11 11 12 12 13 11 12 12 11 12 12 nan
nan 8 8 8 8 9 10 9 9 10 10 9 10 10 10 10 9 8 11 9 9 9 11 11 10 11 11 10 11 12 12 11 11 12 14 11 13 16 14 12 15 15 nan
nan 8 8 9 9 11 8 5 8 10 10 10 10 11 10 10 11 9 8 7 8 9 10 11 11 10 9 10 11 12 10 9 11 14 11 12 16 14 16 15 15 16 nan
nan 7 8 9 9 7 4 6 8 11 10 10 10 10 11 13 13 13 10 9 6 6 7 10 10 9 9 10 9 10 10 10 11 13 13 12 11 10 11 15 15 15 nan
nan 8 8 8 9 9 7 7 9 11 11 10 9 9 11 11 11 12 15 15 13 11 8 6 8 8 9 11 10 10 11 10 8 7 11 11 9 10 12 13 14 11 nan
nan 9 9 9 10 9 8 7 12 12 10 9 10 10 9 8 8 10 13 13 12 13 15 10 5 6 7 5 7 11 12 12 11 11 11 10 10 11 11 13 15 14 nan
nan 10 9 9 9 8 9 9 11 13 11 12 11 11 10 10 8 9 13 11 10 13 14 9 8 10 7 8 10 13 12 9 10 14 10 9 11 12 12 14 13 14 nan
nan nan nan nan nan nan nan nan nan nan nan nan nan nan nan nan nan nan nan nan nan nan nan nan nan nan nan nan nan nan nan nan nan nan nan nan nan nan nan nan nan nan nan
CAPE
0 0 0 0 0 0 0 0 0 0 0 0 0 0 0 0 0 0 5 11 32 9 3 2 1 5 3 13 36 48 35 22 8 27 48 54 35 49 219 200 194 216 182
0 0 0 0 0 0 0 0 0 0 0 0 0 0 0 0 0 0 1 4 0 0 0 0 0 2 14 39 36 26 26 20 21 29 45 51 46 37 20 22 35 110 104
0 0 0 0 0 0 0 0 0 0 0 0 0 0 0 0 0 0 0 0 2 0 0 0 0 0 0 2 6 13 18 18 25 22 36 51 38 14 7 8 16 24 19
0 0 0 0 0 0 0 0 0 0 0 0 0 0 0 0 0 0 0 0 1 1 2 0 0 0 0 0 3 8 23 21 19 24 22 44 42 27 12 23 24 31 36
0 0 0 0 0 0 0 0 0 0 0 0 0 0 0 0 0 0 0 0 0 4 9 2 0 0 0 0 1 6 15 19 9 13 13 26 38 48 36 34 33 34 41
0 0 0 0 0 0 0 0 0 0 0 0 0 0 0 0 0 0 0 0 0 0 0 0 0 3 0 0 0 1 5 15 13 9 10 15 19 35 27 23 17 30 33
0 0 0 0 0 0 0 0 0 0 0 0 0 0 0 0 0 0 0 0 0 0 0 0 0 0 0 0 0 0 0 12 10 14 12 11 5 21 13 19 17 18 21
0 0 0 0 0 0 0 0 0 0 0 0 0 0 0 0 0 0 0 0 0 0 0 0 0 0 0 0 0 0 0 0 14 9 14 17 25 18 8 11 14 15 16
0 0 0 0 0 0 0 0 0 0 0 0 0 0 0 0 0 0 0 0 0 0 0 0 0 0 0 0 0 0 0 0 0 14 9 16 24 29 8 7 8 11 4
0 0 0 0 0 0 0 0 0 0 0 0 0 0 0 0 0 0 0 0 0 0 0 0 0 0 0 0 0 0 0 0 0 0 2 7 15 34 11 13 10 11 11
0 0 0 0 0 0 0 0 0 0 0 0 0 0 0 1 1 1 0 0 0 0 0 0 0 0 0 0 0 1 0 0 0 0 1 2 13 15 15 14 14 10 7
0 0 0 0 0 0 0 0 0 0 0 0 0 0 0 0 0 0 0 0 0 0 0 0 0 0 0 0 1 0 0 0 0 0 0 2 3 7 5 0 1 14 9
0 0 0 0 0 0 0 0 0 0 0 0 0 0 0 0 0 1 7 6 1 0 0 0 0 0 0 0 0 0 0 0 0 0 0 8 5 2 0 0 0 1 9
0 0 0 0 0 0 0 0 0 0 0 0 0 0 0 0 0 0 3 7 3 0 0 0 0 1 0 0 0 0 0 0 0 0 0 1 0 0 0 0 0 0 0
0 0 0 0 0 0 0 0 0 0 0 0 0 0 0 0 0 0 0 3 7 3 0 0 0 0 5 4 14 26 21 6 0 0 0 0 0 0 0 0 0 0 0
0 0 0 0 0 0 0 0 0 0 0 0 0 0 0 0 0 0 0 0 2 9 3 0 0 0 0 0 1 4 6 3 0 0 0 0 0 0 0 0 0 0 0
0 0 0 0 0 0 0 0 0 0 0 0 0 0 0 0 0 0 0 0 0 1 11 9 0 0 0 3 2 6 6 10 13 13 0 0 0 0 0 0 0 0 0
0 0 0 0 0 0 0 0 0 0 0 0 0 0 0 0 0 0 0 0 0 0 0 0 0 0 0 0 3 6 7 7 6 0 0 0 0 0 0 0 0 0 0
0 0 0 0 0 0 0 0 0 0 0 0 0 0 0 0 0 0 0 0 0 0 0 1 2 3 0 0 5 5 6 9 8 0 0 0 0 0 0 0 0 0 0
0 0 0 0 0 0 0 0 0 0 0 0 0 0 0 0 0 0 1 2 1 2 3 6 9 6 5 2 6 6 7 17 17 5 1 0 0 0 0 0 0 0 0
0 0 0 0 0 0 0 0 0 0 0 0 0 0 0 0 0 0 0 0 4 12 7 0 1 5 7 2 6 6 11 8 12 3 2 6 4 0 0 0 0 0 0
0 0 0 0 0 0 0 0 0 0 0 0 0 0 0 0 0 0 0 0 0 6 5 16 7 5 4 6 8 9 15 9 15 0 0 0 0 0 0 0 0 0 0
0 0 0 0 0 0 0 0 0 0 0 0 0 0 0 0 0 3 6 0 0 0 7 20 7 6 7 13 20 20 7 3 3 3 0 0 0 3 2 0 0 0 0
0 0 0 0 0 0 0 0 0 0 0 0 0 0 0 0 0 24 53 55 54 55 30 26 15 11 2 0 1 2 5 4 2 1 0 0 0 0 5 0 0 0 0
0 0 0 0 0 0 0 0 0 0 0 0 0 0 0 0 0 46 61 115 105 107 72 51 54 51 32 15 13 8 0 0 0 0 0 0 0 0 0 0 0 0 0
0 0 0 0 0 0 0 0 0 0 0 0 0 0 0 2 11 32 74 57 57 15 54 55 40 43 31 15 9 3 6 1 0 0 0 0 0 0 0 0 0 0 0